Flag for Germany Weather past 2 weeks in Weiden in der Oberpfalz, Bavaria, Germany

Now
40 °F

Overcast.


Feels Like: 38 °F
Forecast: 32 / 39 °F
Wind: 3 mph from West

Location: Weiden

Current Time: Mar 4, 2015 at 4:42:36 PM

Latest Report: Mar 4, 2015 at 4:00 PM


Visibility: 28 mi

Pressure: 30.29 "Hg

Humidity: 57%

Dew point: 26 °F

Location of Weiden in der OberpfalzLocation

Historic Weather in Weiden in der Oberpfalz — Graph

°F

Weiden in der Oberpfalz temperature yesterday

Maximum temperature yesterday: 46 °F (at 3:00 PM)
Minimum temperature yesterday: 31 °F (at 8:00 AM)
Average temperature yesterday: 37 °F

Past Weeks' High & Low Weather Summary

 TemperatureHumidityPressure
High47 °F (Feb 21, 4:00 PM)100% (Feb 26, 12:00 AM)30.79 "Hg (Feb 26, 12:00 AM)
Low23 °F (Feb 27, 7:00 AM)40% (Feb 27, 4:00 PM)29.47 "Hg (Feb 21, 3:00 PM)
Average35 °F82%30.05 "Hg
* Reported Feb 17 3:00 PM — Mar 4 3:00 PM, Weiden in der Oberpfalz, Weather by CustomWeather, © 2015

Note: Actual official high and low records may vary slightly from our data, if they occured in-between our weather recording intervals... More about our weather records

Advertising

Weiden in der Oberpfalz weather history for previous 24 hours

 ConditionsComfort  
Time TempWeatherWind HumidityBarometerVisibility
3:00 PM
Wed, Mar 4
41 °FOvercast.3 mph56%30.28 "Hg28 mi
2:00 PM41 °FScattered clouds.6 mph49%30.28 "Hg19 mi
1:00 PM40 °FPartly sunny.6 mph50%30.29 "Hg12 mi
12:00 PM39 °FScattered clouds.6 mph60%30.30 "Hg22 mi
11:00 AM38 °FPartly sunny.5 mph63%30.30 "Hg19 mi
10:00 AM36 °FPartly sunny.3 mph72%30.29 "Hg22 mi
9:00 AM35 °FOvercast.2 mph78%30.28 "Hg18 mi
8:00 AM34 °FPassing clouds.1 mph83%30.26 "Hg11 mi
7:00 AM34 °FPartly sunny.2 mph84%30.23 "Hg19 mi
6:00 AM34 °FOvercast.3 mph88%30.20 "Hg17 mi
5:00 AM35 °FOvercast.6 mph89%30.17 "Hg25 mi
4:00 AM36 °FOvercast.5 mph89%30.14 "Hg19 mi
3:00 AM35 °FOvercast.2 mph93%30.12 "Hg34 mi
2:00 AM36 °FLight rain. Overcast.7 mph89%30.12 "Hg6 mi
1:00 AM39 °FOvercast.3 mph69%30.09 "Hg22 mi
12:00 AM40 °FOvercast.3 mph66%30.09 "Hg25 mi
11:00 PM
Tue, Mar 3
40 °FOvercast.5 mph65%30.09 "Hg25 mi
10:00 PM39 °FOvercast.5 mph66%30.10 "Hg22 mi
9:00 PM39 °FPassing clouds.3 mph67%30.11 "Hg22 mi
8:00 PM38 °FClear.2 mph63%30.12 "Hg25 mi
7:00 PM40 °FPassing clouds.2 mph59%30.12 "Hg28 mi
6:00 PM42 °FPassing clouds.3 mph54%30.12 "Hg25 mi
5:00 PM43 °FSunny.5 mph47%30.13 "Hg28 mi
4:00 PM46 °FScattered clouds.6 mph40%30.13 "Hg16 mi
Weather by CustomWeather, © 2015

See weather overviewHow to use our weather pages